Location: Unspecified
(48.5670°N, 0.0000°E)
Time: 22:58:20
(UTC+00:00)

Altair - Pass Details

Date: 25 August 2019
Orbit: 1501 x 1683 km, 47.2° (Epoch: 21 September)

Event Time Altitude Azimuth Distance (km) Brightness Sun altitude
Exits shadow 02:06:37 35° 186° (S) 2,415 8.0 -24.5°
Maximum altitude 02:09:55 45° 144° (SE) 2,091 8.0 -24.2°
Drops below altitude 10° 02:18:46 10° 77° (ENE) 3,759 10.2 -23.3°
Sets 02:21:57 0° 71° (ENE) 4,721 11.0 -23.0°
